Zurück zum Katalog

STARLINK-4747

AktivKommunikationVLEO
NORAD 53832·PAYLOAD·🇺🇸 United States

Gestartet Sep 19, 2022 von Cape Canaveral Space Force Station

Loading…

Nächste Überflüge (nächste 24 Stunden)

TLE

AktuellSource: CelesTrak SupGP

Epoche: Sep 15, 2026, 02:35 UTC

1 53832C 22114Q   26258.10812500 -.00001628  00000+0 -48096-4 0  2588
2 53832  53.1601 164.6668 0001673  74.7142  93.3411 15.34386159    15

Verfolge STARLINK-4747 in Echtzeit mit AllMySat

Download on the App Store